{"data":{"norad_id":59632,"intl_designator":"2024-082B","name":"STARLINK-31781","alt_names":[],"object_type":"PAYLOAD","status":"ACTIVE","operator":null,"country":"US","launch_date":"2024-05-03","launch_site_code":"AFETR","launch_vehicle":null,"mission":null,"orbit_class":"UNKNOWN","rcs_meters":null,"size_class":null,"mass_kg":null,"dimensions":null,"purposes":["comms"],"wikipedia_slug":null,"has_3d_model":false,"image_url":null,"decayed_at":null,"tle_current":{"epoch":"2026-09-21T22:17:47.439456Z","epoch_age_seconds":44650,"freshness":"FRESH","line1":"1 59632U 24082B   26264.92902129  .00000304  00000+0  20560-4 0  9998","line2":"2 59632  43.0032  97.4432 0001149 265.5446  94.5274 15.27578565135028","mean_motion":15.27578565,"eccentricity":0.0001149,"inclination_deg":43.0032,"raan_deg":97.4432,"arg_perigee_deg":265.5446,"mean_anomaly_deg":94.5274,"bstar":2.056e-5,"rev_number":13502,"period_min":94.266837267385,"perigee_km":482.26504217311,"apogee_km":483.84174372541,"semimajor_km":6861.1903929493,"source":"CELESTRAK","updated_at":"2026-09-22T09:00:49.016713Z"}}}